Hourly Data Report for September 25, 2017

All times are specified in Local Standard Time (LST). Add 1 hour to adjust for Daylight Saving Time where and when it is observed.

PENTICTON A
BRITISH COLUMBIA

49°27'45.000" N
119°36'08.000" W
344.40 m
1126146
71889
YYF

Download Data

Hourly Data (September 2017)
Hourly Data Report for September 25, 2017
Temp Definition
°C
Dew Point Temp Definition
°C
Rel Hum Definition
%
Wind Dir Definition
10's deg

Wind Spd Definition
km/h
Visibility Definition
km
Stn Press Definition
kPa
Hmdx Definition


Wind Chill Definition


Weather Definition


TIME
00:00 Legend Double Dagger 6.7 5.9 95 35 5 24.1 97.69     LegendNANA
01:00 Legend Double Dagger 7.2 6.1 93 36 1 24.1 97.72     Mainly Clear
02:00 Legend Double Dagger 6.4 5.7 95 0 1 24.1 97.71     LegendNANA
03:00 Legend Double Dagger 7.0 6.5 97 5 7 24.1 97.72     LegendNANA
04:00 Legend Double Dagger 6.2 5.7 97 6 4 24.1 97.72     Clear
05:00 Legend Double Dagger 7.1 6.7 97 5 3 24.1 97.73     LegendNANA
06:00 Legend Double Dagger 5.5 5.1 97   0 24.1 97.74     LegendNANA
07:00 Legend Double Dagger 7.4 6.7 95 36 1 24.1 97.75     Mostly Cloudy
08:00 Legend Double Dagger 12.4 9.9 85 18 3 24.1 97.75     LegendNANA
09:00 Legend Double Dagger 13.6 8.6 71 13 4 24.1 97.73     LegendNANA
10:00 Legend Double Dagger 16.7 8.3 58 36 2 24.1 97.70     Mostly Cloudy
11:00 Legend Double Dagger 17.0 8.5 57 17 3 24.1 97.65     LegendNANA
12:00 Legend Double Dagger 16.4 9.1 62 35 12 24.1 97.65     LegendNANA
13:00 Legend Double Dagger 16.8 9.2 61 3 8 24.1 97.64     Cloudy
14:00 Legend Double Dagger 17.8 9.5 58 36 2 24.1 97.60     LegendNANA
15:00 Legend Double Dagger 18.7 9.0 53 36 3 24.1 97.57     LegendNANA
16:00 Legend Double Dagger 16.7 10.0 64 2 11 24.1 97.60     Mostly Cloudy
17:00 Legend Double Dagger 16.2 10.5 69 36 11 24.1 97.60     LegendNANA
18:00 Legend Double Dagger 15.5 10.4 71 32 5 24.1 97.63     LegendNANA
19:00 Legend Double Dagger 14.3 10.5 78 34 3 24.1 97.68     Mostly Cloudy
20:00 Legend Double Dagger 13.8 10.4 79 33 7 24.1 97.74     LegendNANA
21:00 Legend Double Dagger 12.7 10.0 83 36 5 24.1 97.77     LegendNANA
22:00 Legend Double Dagger 12.0 9.4 84 4 5 24.1 97.80     Mostly Cloudy
23:00 Legend Double Dagger 10.2 8.6 90 0 1 24.1 97.81     LegendNANA

Notes on Data Quality.

Legend

  • E = Estimated
  • M = Missing
  • NA = Not Available
  • ‡ = Partner data that is not subject to review by the National Climate Archives
Date modified: